• MPC Preparation (Info)

  • MPEC 2012-K23 : 2012 KB6

    The following Minor Planet Electronic Circular may be linked-to from your own Web pages, but must not otherwise be redistributed electronically.

    A form allowing access to any MPEC is at the bottom of this page.


    Read MPEC 2012-K22 Read MPEC 2012-K24


    M.P.E.C. 2012-K23                                Issued 2012 May 20, 00:11 UT
    
         The Minor Planet Electronic Circulars contain information on unusual
             minor planets and routine data on comets.  They are published
       on behalf of Commission 20 of the International Astronomical Union by the
              Minor Planet Center, Smithsonian Astrophysical Observatory,
                              Cambridge, MA 02138, U.S.A.
    
                 Prepared using the Tamkin Foundation Computer Network
    
                                  MPC@CFA.HARVARD.EDU
                URL https://www.minorplanetcenter.net/    ISSN 1523-6714
    
                                       2012 KB6
    
    Observations:
         K12K06B* C2012 05 18.35759 14 23 40.487-00 25 20.06         21.1 wLEK023F51
         K12K06B  C2012 05 18.37115 14 23 41.771-00 27 17.81         21.1 wLEK023F51
         K12K06B  C2012 05 18.39837 14 23 44.340-00 31 14.04         21.0 wLEK023F51
         K12K06B KC2012 05 19.20275 14 25 30.89 -02 23 56.0          21.4 RoEK023291
         K12K06B KC2012 05 19.20573 14 25 31.16 -02 24 19.8          21.2 RoEK023291
         K12K06B KC2012 05 19.20843 14 25 31.44 -02 24 42.0          21.4 RoEK023291
         K12K06B  C2012 05 19.24685 14 25 34.58 -02 29 56.6          21.1 RoEK023H01
         K12K06B  C2012 05 19.25556 14 25 35.41 -02 31 07.0          20.8 RoEK023H01
         K12K06B  C2012 05 19.26479 14 25 36.26 -02 32 21.4          21.3 RoEK023H01
         K12K06B  C2012 05 19.27306 14 25 37.03 -02 33 28.3          20.7 RoEK023H01
         K12K06B %C2012 05 19.37389314 25 50.84 -02 46 40.5          21.0 RtEK023F65
         K12K06B %C2012 05 19.37790014 25 51.20 -02 47 12.9          21.0 RtEK023F65
         K12K06B %C2012 05 19.38184914 25 51.55 -02 47 44.4          21.3 RtEK023F65
    
    Observer details:
    291 LPL/Spacewatch II.  Observer T. H. Bressi.  1.8-m f/2.7 reflector + CCD.
    F51 Pan-STARRS 1, Haleakala.  Observers N. Primak, A. Schultz, S. Watters,
        J. Thiel, T. Goggia.  Measurer PS1 Science Consortium.  1.8-m
        Ritchey-Chretien + CCD.
    F65 Haleakala-Faulkes Telescope North.  Observer T. Lister.  2.0-m f/10
        Ritchey-Chretien + CCD.
    H01 Magdalena Ridge Observatory, Socorro.  Observers W. H. Ryan, E. V. Ryan.
        Measurer W. H. Ryan.  2.4-m f/8.9 reflector + CCD.
    
    Orbital elements:
    2012 KB6                                                 Earth MOID = 0.0572 AU
    Epoch 2012 Mar. 14.0 TT = JDT 2456000.5                 MPC
    M 356.53649              (2000.0)            P               Q
    n   0.62221122     Peri.  105.32076     -0.97215877     -0.19810445
    a   1.3588687      Node    63.38902     +0.12202091     -0.88394632
    e   0.3128607      Incl.    8.04643     +0.20004557     -0.42354873
    P   1.58           H   25.0           G   0.15           U   8
    Residuals in seconds of arc
    120518 F51  0.0   0.2+    120519 291  0.2+  0.1+    120519 F65  0.1-  0.1+
    120518 F51  0.0   0.1+    120519 H01  0.1-  0.3-    120519 F65  0.0   0.2-
    120518 F51  0.0   0.3-    120519 H01  0.2+  0.2-    120519 F65  0.0   0.1-
    120519 291  0.0   0.0     120519 H01  0.0   0.0
    120519 291  0.1-  0.4+    120519 H01  0.1-  0.1-
    
    Ephemeris:
    2012 KB6                 a,e,i = 1.36, 0.31, 8                   q = 0.9337
    Date    TT    R. A. (2000) Decl.     Delta      r     Elong.  Phase     V
    2012 04 20    06 46 00.3 +76 57 59   0.1020  0.9834    75.1    99.2    23.6
    ...
    2012 05 05    13 27 33.0 +48 07 29   0.06511 1.0358   113.1    63.6    21.4
    ...
    2012 05 13    14 09 13.0 +15 28 05   0.07296 1.0688   141.9    35.7    20.9
    ...
    2012 05 19    14 25 03.4 -01 55 17   0.09221 1.0952   153.7    24.1    21.1
    2012 05 20    14 27 07.6 -04 07 30   0.09620 1.0997   154.7    23.1    21.2
    2012 05 21    14 29 05.3 -06 09 36   0.1004  1.1042   155.5    22.4    21.3
    ...
    2012 05 27    14 39 13.5 -15 30 10   0.1284  1.1320   156.3    21.1    21.8
    ...
    2012 06 04    14 50 29.4 -22 55 37   0.1720  1.1700   152.7    23.4    22.6
    ...
    2012 06 19    15 10 17.7 -29 39 21   0.2685  1.2427   143.7    29.0    23.9
    
    A. U. Tomatic                (C) Copyright 2012 MPC           M.P.E.C. 2012-K23
    

    Read MPEC 2012-K22 Read MPEC 2012-K24


    MPEC number:

    Enter an MPEC number in one of the following forms:

    • 1997-B01 (the full form)
    • J97B01 (the packed version of the full form)
    • B01 (the abbreviated form)